Regional Weather Roundup
Issued by NWS State College, PA

Home | Current Version | Previous Version | Text Only | Print | Product List | Glossary On
Versions: 1 2 3 4 5 6 7 8 9 10 11 12 13 14 15 16 17 18 19 20 21 22 23 24 25 26 27 28 29 30 31 32 33 34 35 36 37 38 39 40 41 42 43 44 45 46 47 48 49 50
309
ASUS41 KCTP 021510
RWRCTP

REGIONAL WEATHER ROUNDUP
NATIONAL WEATHER SERVICE STATE COLLEGE PA
1000 AM EST FRI DEC 02 2016

Note: "fair" indicates few or no clouds below 12,000 feet with no
significant weather and/or obstructions to visibility.

* = STATION THAT DOES NOT REPORT PRECIPITATION /E.G. RAIN...SNOW...ETC/
    THUNDER OR FOG.

PAZ002>004-007>009-013>016-020>023-029>032-021600-
WESTERN PENNSYLVANIA

CITY           SKY/WX    TMP DP  RH WIND       PRES   REMARKS
ERIE           LGT RAIN  37  34  89 SW15      29.97R FOG
MEADVILLE      CLOUDY    35  29  78 W14       29.98R
FRANKLIN*        N/A     36  27  69 W13G21    30.00R
NEW CASTLE     CLOUDY    38  30  73 W9G20     30.05R
BEAVER COUNTY  CLOUDY    36  28  75 SW14G20   30.04R
BUTLER*        CLOUDY    36  27  69 SW13      30.07R
PITTSBURGH INT CLOUDY    38  28  67 W10G20    30.06R
PITTSBURGH     CLOUDY    37  26  64 W16       30.06R
INDIANA*       CLOUDY    36  30  80 W9G17     30.06R
LATROBE        CLOUDY    36  28  75 W16       30.07R
WASHINGTON CO* CLOUDY    36  28  75 W5        30.09R
$$

PAZ004>006-010>012-017>019-024>028-033>037-041-042-045-046-049>053-021600-
CENTRAL PENNSYLVANIA

CITY           SKY/WX    TMP DP  RH WIND       PRES   REMARKS
BRADFORD       LGT SNOW  34  31  88 W10G21    29.90R FOG
DUBOIS         CLOUDY    37  29  72 W13       29.95R
CLEARFIELD     CLOUDY    38  30  73 SW15      29.96S
JOHNSTOWN      CLOUDY    32  27  81 W16G25    29.98R
ALTOONA        CLOUDY    37  29  72 W13       30.02R
STATE COLLEGE  CLOUDY    39  30  70 SW16      29.98R
WILLIAMSPORT   PTSUNNY   44  30  57 W17       29.95R
SELINSGROVE    MOSUNNY   45  33  63 W8        29.99R
FT INDIANTOWN  PTSUNNY   43  29  57 W15G23    29.98S
CAPITAL CITY   MOSUNNY   45  29  53 W9        30.02R
HARRISBURG     PTSUNNY   44  32  62 W17       30.01R
YORK           MOSUNNY   43  30  60 W12       30.02R
$$

PAZ038>040-043-044-047-048-054-055-060>062-067>071-021600-
EASTERN PENNSYLVANIA

CITY           SKY/WX    TMP DP  RH WIND       PRES   REMARKS
SCRANTON       CLOUDY    40  31  70 SW16G23   29.91R
MOUNT POCONO   CLOUDY    35  28  75 W10       29.88S
ALLENTOWN      MOSUNNY   45  30  55 W15G26    29.96S
QUAKERTOWN*    MOSUNNY   43  30  61 NW10G20   29.97S
READING        MOSUNNY   43  29  57 W10G17    29.98S
LANCASTER      CLOUDY    42  32  67 W15       30.00R
COATESVILLE    PTSUNNY   43  30  61 W15       30.00R
POTTSTOWN      PTSUNNY   43  29  57 W10G17    29.99S
BLUE BELL      MOSUNNY   43  30  61 NW10G16   29.98R
DOYLESTOWN     SUNNY     47  31  53 W14G22    29.96R
WILLOW GROVE   NOT AVBL
NORTH PHILA    MOSUNNY   48  30  49 NW14G24   30.00R
PHILADELPHIA   PTSUNNY   48  28  46 NW21G28   30.00R
$$




USA.gov is the U.S. government's official web portal to all federal, state and local government web resources and services.